User: anonymous   Login
Location: Unspecified
(43.4680°N, 87.1740°E)
Time: 23:49:42
(UTC+00:00)
Language:

Cosmos 1400 Rocket - Orbit

View from above orbital plane
View from above orbital plane
View from above satellite
View from above satellite

Ground track
Ground track

The orbit data is extracted from the following two-line orbital elements,

1 13403U 82079B   21169.51668682  .00000221  00000-0  12795-4 0  9991
2 13403  81.1706  33.3141 0033853 134.7888 225.6099 15.07433745116754
Epoch (UTC): 18 June 2021 12:24:01
Eccentricity: 0.0033853
inclination: 81.1706°
perigee height: 520 km
apogee height: 567 km
right ascension of ascending node: 33.3141°
argument of perigee: 134.7888°
revolutions per day: 15.07433745
mean anomaly at epoch: 225.6099°
orbit number at epoch: 11675

The dashed part of the orbit path shows where the satellite is in the earth's shadow,  

DLR